�������l�o���
Date,Time,MP-1(��Sv/h),MP-2(��Sv/h),MP-3(��Sv/h),MP-4(��Sv/h),MP-5(��Sv/h),MP-6(��Sv/h),MP-7(��Sv/h),MP-8(��Sv/h),����,����(m/s),���J
2020/10/14,00:00,0.651,0.924,0.586,1.124,0.801,0.380,0.658,0.625,�k��,4.1,��
2020/10/14,00:10,0.649,0.924,0.588,1.125,0.802,0.380,0.659,0.625,�k��,4.3,��
2020/10/14,00:20,0.650,0.925,0.588,1.125,0.798,0.380,0.659,0.624,�k�k��,4.0,�L
2020/10/14,00:30,0.651,0.923,0.588,1.124,0.800,0.380,0.659,0.627,�k�k��,3.7,��
2020/10/14,00:40,0.649,0.925,0.589,1.126,0.799,0.381,0.658,0.625,�k,4.0,��
2020/10/14,00:50,0.652,0.925,0.587,1.123,0.800,0.381,0.658,0.626,�k�k��,4.5,��
2020/10/14,01:00,0.649,0.925,0.588,1.123,0.802,0.379,0.661,0.626,�k�k��,4.7,��
2020/10/14,01:10,0.651,0.925,0.588,1.126,0.800,0.381,0.659,0.623,�k�k��,4.3,��
2020/10/14,01:20,0.651,0.924,0.588,1.124,0.800,0.380,0.659,0.624,�k�k��,4.3,��
2020/10/14,01:30,0.651,0.925,0.587,1.126,0.801,0.379,0.659,0.623,�k�k��,4.1,��
2020/10/14,01:40,0.651,0.924,0.588,1.124,0.802,0.380,0.659,0.624,�k�k��,4.0,��
2020/10/14,01:50,0.650,0.924,0.587,1.126,0.804,0.381,0.660,0.626,�k�k��,4.5,��
2020/10/14,02:00,0.651,0.924,0.588,1.124,0.802,0.380,0.659,0.625,�k�k��,5.1,��
2020/10/14,02:10,0.652,0.923,0.588,1.124,0.802,0.380,0.660,0.623,�k�k��,5.7,��
2020/10/14,02:20,0.653,0.925,0.587,1.124,0.803,0.380,0.658,0.626,�k�k��,5.1,��
2020/10/14,02:30,0.648,0.925,0.588,1.123,0.802,0.381,0.659,0.625,�k�k��,4.8,��
2020/10/14,02:40,0.652,0.925,0.586,1.126,0.801,0.379,0.660,0.624,�k�k��,4.5,��
2020/10/14,02:50,0.651,0.926,0.588,1.127,0.802,0.381,0.660,0.624,�k��,3.9,��
2020/10/14,03:00,0.650,0.924,0.586,1.124,0.801,0.381,0.658,0.623,�k�k��,4.5,��
2020/10/14,03:10,0.651,0.924,0.588,1.126,0.802,0.379,0.661,0.625,�k�k��,4.1,��
2020/10/14,03:20,0.650,0.924,0.587,1.126,0.801,0.380,0.659,0.624,�k�k��,3.5,��
2020/10/14,03:30,0.649,0.923,0.589,1.126,0.802,0.381,0.659,0.623,�k�k��,3.3,��
2020/10/14,03:40,0.652,0.927,0.587,1.125,0.802,0.380,0.660,0.626,�k�k��,3.6,��
2020/10/14,03:50,0.650,0.926,0.588,1.127,0.802,0.382,0.659,0.625,�k�k��,4.1,��
2020/10/14,04:00,0.650,0.924,0.589,1.125,0.801,0.381,0.658,0.625,�k�k��,4.9,��
2020/10/14,04:10,0.653,0.923,0.588,1.124,0.801,0.382,0.660,0.624,�k��,4.3,��
2020/10/14,04:20,0.652,0.925,0.588,1.126,0.802,0.379,0.659,0.626,�k�k��,3.3,��
2020/10/14,04:30,0.651,0.925,0.588,1.125,0.802,0.380,0.659,0.624,�k�k��,3.6,��
2020/10/14,04:40,0.651,0.925,0.588,1.124,0.801,0.381,0.659,0.625,�k�k��,3.0,��
2020/10/14,04:50,0.652,0.925,0.588,1.124,0.800,0.381,0.661,0.627,�k��,3.2,��
2020/10/14,05:00,0.651,0.926,0.588,1.125,0.802,0.380,0.661,0.626,�k��,2.9,�L
2020/10/14,05:10,0.651,0.925,0.586,1.127,0.804,0.380,0.659,0.625,�k��,2.5,��
2020/10/14,05:20,0.651,0.926,0.587,1.127,0.803,0.380,0.659,0.626,�k�k��,3.1,��
2020/10/14,05:30,0.651,0.924,0.588,1.125,0.801,0.381,0.660,0.625,�k��,3.7,��
2020/10/14,05:40,0.650,0.924,0.588,1.128,0.802,0.380,0.660,0.624,�k��,3.1,��
2020/10/14,05:50,0.651,0.924,0.588,1.124,0.803,0.381,0.660,0.626,�k�k��,2.9,��
2020/10/14,06:00,0.650,0.925,0.587,1.126,0.802,0.380,0.659,0.626,�k�k��,3.2,��
2020/10/14,06:10,0.650,0.926,0.588,1.125,0.803,0.380,0.657,0.626,�k�k��,3.6,��
2020/10/14,06:20,0.651,0.925,0.588,1.125,0.804,0.379,0.660,0.625,�k�k��,3.4,��
2020/10/14,06:30,0.649,0.924,0.588,1.127,0.802,0.380,0.659,0.625,�k�k��,3.6,��
2020/10/14,06:40,0.652,0.926,0.588,1.128,0.802,0.381,0.660,0.626,�k��,2.6,��
2020/10/14,06:50,0.651,0.926,0.588,1.124,0.801,0.380,0.660,0.626,�k��,3.1,��
2020/10/14,07:00,0.651,0.924,0.588,1.128,0.803,0.380,0.659,0.624,�k��,3.0,��
2020/10/14,07:10,0.650,0.926,0.588,1.127,0.803,0.380,0.659,0.626,�k�k��,3.4,��
2020/10/14,07:20,0.651,0.926,0.588,1.129,0.802,0.382,0.660,0.623,�k�k��,3.6,��
2020/10/14,07:30,0.652,0.925,0.588,1.127,0.802,0.380,0.659,0.623,�k�k��,3.4,��
2020/10/14,07:40,0.652,0.926,0.589,1.126,0.803,0.380,0.659,0.623,�k�k��,3.9,��
2020/10/14,07:50,0.651,0.923,0.589,1.128,0.801,0.380,0.660,0.625,�k,3.8,��
2020/10/14,08:00,0.651,0.922,0.587,1.127,0.803,0.381,0.658,0.625,�k�k��,3.5,��
2020/10/14,08:10,0.651,0.923,0.590,1.126,0.805,0.379,0.659,0.625,�k�k��,3.1,��
2020/10/14,08:20,0.652,0.925,0.588,1.128,0.802,0.379,0.657,0.627,�k�k��,2.6,��
2020/10/14,08:30,0.655,0.923,0.589,1.126,0.802,0.381,0.658,0.626,�k�k��,3.4,��
2020/10/14,08:40,0.652,0.922,0.588,1.125,0.803,0.381,0.658,0.625,�k,2.6,��
2020/10/14,08:50,0.651,0.923,0.588,1.126,0.803,0.380,0.659,0.623,�k,2.8,��
2020/10/14,09:00,0.652,0.923,0.588,1.127,0.804,0.380,0.657,0.623,�k,2.6,��
2020/10/14,09:10,0.653,0.923,0.589,1.125,0.802,0.380,0.659,0.624,�k�k��,2.3,��
2020/10/14,09:20,0.651,0.921,0.588,1.128,0.803,0.379,0.659,0.624,�k��,2.8,��
2020/10/14,09:30,0.651,0.921,0.588,1.126,0.803,0.379,0.659,0.622,�k�k��,2.9,��
2020/10/14,09:40,0.649,0.924,0.586,1.127,0.802,0.379,0.660,0.624,�k��,3.2,��
2020/10/14,09:50,0.650,0.921,0.586,1.126,0.802,0.378,0.659,0.625,�k�k��,2.6,��
2020/10/14,10:00,0.650,0.919,0.587,1.128,0.801,0.379,0.660,0.622,�k�k��,3.2,��
2020/10/14,10:10,0.649,0.923,0.585,-,0.802,0.378,0.658,0.622,�k�k��,3.1,��
2020/10/14,10:20,0.651,0.920,0.588,-,0.801,0.379,0.659,0.622,�k��,2.6,��
2020/10/14,10:30,0.650,0.921,0.588,-,0.802,0.378,0.659,0.624,�k��,3.0,��
2020/10/14,10:40,0.650,0.921,0.587,-,0.802,0.380,0.659,0.623,�k��,2.3,��
2020/10/14,10:50,0.649,0.923,0.586,-,0.804,0.379,0.659,0.622,���쓌,2.9,��
2020/10/14,11:00,0.650,0.922,0.586,-,0.803,0.379,0.659,0.623,��,3.3,��
2020/10/14,11:10,0.651,0.923,0.586,-,0.806,0.379,0.660,0.624,���쓌,2.5,��
2020/10/14,11:20,0.652,0.922,0.586,-,0.804,0.378,0.660,0.623,��,3.1,��
2020/10/14,11:30,0.653,0.921,0.587,-,0.805,0.379,0.660,0.622,���쓌,3.1,��
2020/10/14,11:40,0.646,0.923,0.588,-,0.803,0.379,0.660,0.622,���쓌,3.4,��
2020/10/14,11:50,0.648,0.925,0.588,-,0.804,0.379,0.660,0.622,���쓌,3.0,��
2020/10/14,12:00,0.653,0.924,0.588,-,0.805,0.379,0.660,0.623,�쓌,3.3,��
2020/10/14,12:10,0.652,0.926,0.587,-,0.806,0.378,0.660,0.622,���쓌,3.9,��
2020/10/14,12:20,0.653,0.927,0.586,-,0.808,0.379,0.661,0.623,���쓌,4.0,��
2020/10/14,12:30,0.652,0.928,0.588,-,0.806,0.379,0.662,0.625,�쓌,2.6,��
2020/10/14,12:40,0.651,0.926,0.588,-,0.807,0.380,0.660,0.623,���쓌,3.2,��
2020/10/14,12:50,0.653,0.928,0.585,-,0.807,0.380,0.662,0.624,���쓌,3.6,��
2020/10/14,13:00,0.651,0.929,0.586,-,0.809,0.379,0.663,0.622,��쓌,3.8,��
2020/10/14,13:10,0.653,0.926,0.587,-,0.808,0.380,0.662,0.623,�쓌,4.3,��
2020/10/14,13:20,0.654,0.929,0.588,-,0.807,0.379,0.660,0.623,�쓌,3.6,��
2020/10/14,13:30,0.652,0.927,0.582,-,0.807,0.380,0.662,0.624,��쓌,3.6,��
2020/10/14,13:40,0.654,0.930,0.578,-,0.806,0.379,0.662,0.624,�쓌,4.0,��
2020/10/14,13:50,0.653,0.928,0.584,-,0.808,0.379,0.662,0.623,�쓌,3.1,��
2020/10/14,14:00,0.654,0.928,0.589,-,0.809,0.380,0.662,0.624,��쓌,3.6,��
2020/10/14,14:10,0.654,0.927,0.588,1.126,0.809,0.379,0.661,0.624,��쓌,3.8,��
2020/10/14,14:20,0.654,0.930,0.587,1.125,0.810,0.380,0.661,0.623,�쓌,3.6,��
2020/10/14,14:30,0.653,0.932,0.588,1.128,0.808,0.379,0.661,0.624,��쓌,3.9,��
2020/10/14,14:40,0.655,0.927,0.588,1.129,0.809,0.380,0.663,0.625,��쓌,3.9,��
2020/10/14,14:50,0.655,0.929,0.588,1.131,0.808,0.381,0.660,0.623,��쓌,4.2,��
2020/10/14,15:00,0.652,0.929,0.589,1.129,0.810,0.380,0.662,0.625,�쓌,3.9,��
2020/10/14,15:10,0.656,0.930,0.588,1.129,0.810,0.380,0.661,0.624,�쓌,3.5,��
2020/10/14,15:20,0.654,0.931,0.591,1.132,0.809,0.378,0.662,0.623,��쓌,3.9,��
2020/10/14,15:30,0.653,0.933,0.589,1.129,0.809,0.380,0.661,0.624,�쓌,3.3,��
2020/10/14,15:40,0.653,0.931,0.590,1.130,0.808,0.379,0.661,0.623,���쓌,3.7,��
2020/10/14,15:50,0.655,0.934,0.586,1.130,0.810,0.381,0.661,0.622,���쓌,3.0,��
2020/10/14,16:00,0.654,0.933,0.590,1.132,0.809,0.381,0.661,0.622,�쓌,2.9,��
2020/10/14,16:10,0.653,0.931,0.587,1.132,0.808,0.379,0.661,0.625,���쓌,2.6,��
2020/10/14,16:20,0.654,0.934,0.587,1.132,0.810,0.382,0.661,0.624,�쓌,2.6,��
2020/10/14,16:30,0.652,0.935,0.589,1.130,0.808,0.380,0.661,0.625,���쓌,2.5,��
2020/10/14,16:40,0.655,0.935,0.589,1.131,0.810,0.382,0.661,0.625,�쓌,2.6,��
2020/10/14,16:50,0.654,0.935,0.587,1.134,0.809,0.382,0.662,0.624,��,1.2,��
2020/10/14,17:00,0.653,0.936,0.590,1.131,0.810,0.381,0.661,0.625,���쓌,1.9,��
2020/10/14,17:10,0.653,0.937,0.592,1.131,0.810,0.382,0.662,0.624,��,1.2,��
2020/10/14,17:20,0.655,0.936,0.592,1.132,0.810,0.381,0.663,0.623,���쓌,0.6,��
2020/10/14,17:30,0.654,0.938,0.592,1.133,0.808,0.382,0.662,0.624,�쓌,1.2,��
2020/10/14,17:40,0.655,0.939,0.591,1.132,0.810,0.380,0.663,0.624,�쓌,0.9,��
2020/10/14,17:50,0.654,0.937,0.593,1.131,0.810,0.380,0.662,0.625,�쓌,0.9,��
2020/10/14,18:00,0.656,0.936,0.592,1.132,0.812,0.381,0.661,0.626,���쓌,1.1,��
2020/10/14,18:10,0.658,0.939,0.593,1.133,0.813,0.381,0.661,0.625,���쓌,1.2,��
2020/10/14,18:20,0.656,0.936,0.592,1.131,0.813,0.381,0.662,0.625,��쓌,1.1,��
2020/10/14,18:30,0.656,0.936,0.594,1.132,0.813,0.380,0.662,0.625,��쓌,2.3,��
2020/10/14,18:40,0.656,0.938,0.591,1.131,0.810,0.381,0.663,0.627,��,2.2,��
2020/10/14,18:50,0.656,0.936,0.592,1.130,0.812,0.382,0.660,0.627,��,2.0,��
2020/10/14,19:00,0.653,0.936,0.593,1.134,0.812,0.381,0.662,0.626,��,2.3,��
2020/10/14,19:10,0.656,0.934,0.593,1.132,0.812,0.381,0.662,0.627,��,3.0,��
2020/10/14,19:20,0.655,0.937,0.592,1.132,0.813,0.383,0.662,0.625,��,2.8,��
2020/10/14,19:30,0.655,0.936,0.593,1.134,0.813,0.382,0.663,0.625,��쐼,2.3,��
2020/10/14,19:40,0.655,0.937,0.593,1.134,0.812,0.382,0.662,0.628,��,2.5,��
2020/10/14,19:50,0.655,0.937,0.592,1.135,0.813,0.383,0.662,0.625,��,2.6,��
2020/10/14,20:00,0.655,0.937,0.592,1.131,0.814,0.381,0.663,0.625,��,2.5,��
2020/10/14,20:10,0.655,0.936,0.590,1.134,0.813,0.382,0.663,0.625,��쐼,2.0,��
2020/10/14,20:20,0.655,0.934,0.593,1.132,0.814,0.382,0.662,0.625,��쐼,2.0,��
2020/10/14,20:30,0.656,0.935,0.593,1.134,0.814,0.380,0.663,0.627,��쐼,1.7,��
2020/10/14,20:40,0.655,0.938,0.592,1.133,0.812,0.381,0.662,0.625,�쐼,2.3,��
2020/10/14,20:50,0.656,0.937,0.591,1.132,0.814,0.382,0.661,0.627,�쐼,1.7,��
2020/10/14,21:00,0.657,0.935,0.592,1.130,0.814,0.381,0.661,0.627,�쐼,2.0,��
2020/10/14,21:10,0.656,0.935,0.591,1.133,0.813,0.381,0.663,0.626,�쐼,2.0,��
2020/10/14,21:20,0.656,0.936,0.591,1.132,0.813,0.383,0.662,0.627,��쐼,2.0,��
2020/10/14,21:30,0.657,0.934,0.591,1.135,0.814,0.382,0.665,0.627,��쐼,1.9,��
2020/10/14,21:40,0.654,0.937,0.593,1.133,0.814,0.382,0.662,0.625,��쐼,1.7,��
2020/10/14,21:50,0.658,0.934,0.591,1.132,0.814,0.381,0.662,0.627,��쐼,2.3,��
2020/10/14,22:00,0.655,0.935,0.594,1.133,0.814,0.383,0.662,0.626,��쐼,2.3,��
2020/10/14,22:10,0.655,0.934,0.592,1.132,0.814,0.381,0.662,0.626,��쐼,2.0,��
2020/10/14,22:20,0.655,0.936,0.592,1.132,0.812,0.383,0.662,0.627,��,2.9,��
2020/10/14,22:30,0.658,0.936,0.592,1.134,0.813,0.382,0.663,0.626,��쐼,2.3,��
2020/10/14,22:40,0.655,0.934,0.594,1.132,0.813,0.382,0.660,0.626,��쐼,2.8,��
2020/10/14,22:50,0.654,0.936,0.593,1.133,0.812,0.383,0.662,0.627,��쐼,2.5,��
2020/10/14,23:00,0.656,0.933,0.592,1.133,0.812,0.383,0.663,0.626,��쐼,2.5,��
2020/10/14,23:10,0.656,0.934,0.593,1.132,0.814,0.382,0.663,0.626,��,4.9,�L
2020/10/14,23:20,0.656,0.935,0.593,1.134,0.812,0.381,0.663,0.627,��쐼,5.2,�L
2020/10/14,23:30,0.657,0.933,0.593,1.133,0.814,0.383,0.663,0.625,��,6.4,�L
2020/10/14,23:40,0.657,0.935,0.592,1.135,0.813,0.382,0.661,0.627,��,5.6,��
2020/10/14,23:50,0.658,0.935,0.592,1.133,0.812,0.382,0.662,0.626,��쐼,1.2,��
